When you browse on this site, cookies collect data to enhance your experience and personalize the content and advertising you see.
Visit our Privacy Policy to learn more. By continuing to use the site, you agree to this use of cookies and data.
  • In United Kingdom
  • List of Countries
  • For 7 days
  • Water Temperature
  • Weather Map
  • Weather Widgets
  • user-avatar
    Login

    Hourly Weather Salzburg

    Today, 2 June, Tuesday

    Time Temperature Precipitation Wind Pressure Humidity
    00:00 +4°C° 0 mm 1 mps 626 mmHg 93%
    01:00 +4°C° 0 mm 1 mps 626 mmHg 92%
    02:00 +4°C° 0 mm 1 mps 626 mmHg 92%
    03:00 +4°C° 0 mm 1 mps 626 mmHg 92%
    04:00 +4°C° 0 mm 1 mps 626 mmHg 92%
    05:00 +6°C° 0 mm 1 mps 626 mmHg 87%
    06:00 +8°C° 0 mm 1 mps 627 mmHg 82%
    07:00 +9°C° 0 mm 0 mps 628 mmHg 74%
    08:00 +11°C° 0 mm 1 mps 628 mmHg 68%
    09:00 +12°C° 0 mm 2 mps 628 mmHg 62%
    10:00 +13°C° 0 mm 2 mps 628 mmHg 56%
    11:00 +14°C° 0.2 mm 2 mps 628 mmHg 55%
    12:00 +14°C° 0.2 mm 2 mps 628 mmHg 55%
    13:00 +14°C° 0.2 mm 2 mps 628 mmHg 55%
    14:00 +14°C° 0.4 mm 2 mps 627 mmHg 57%
    15:00 +13°C° 0.4 mm 2 mps 627 mmHg 60%
    16:00 +13°C° 0.4 mm 2 mps 626 mmHg 62%
    17:00 +12°C° 0.5 mm 2 mps 626 mmHg 71%
    18:00 +10°C° 0.5 mm 1 mps 625 mmHg 80%
    19:00 +9°C° 0.5 mm 1 mps 625 mmHg 89%
    20:00 +8°C° 0.3 mm 1 mps 624 mmHg 90%
    21:00 +7°C° 0.3 mm 1 mps 624 mmHg 91%
    22:00 +5°C° 0.3 mm 1 mps 624 mmHg 92%
    23:00 +5°C° 0 mm 1 mps 623 mmHg 93%

    Tomorrow, 3 June, Wednesday

    Time Temperature Precipitation Wind Pressure Humidity
    00:00 +5°C° 0 mm 1 mps 623 mmHg 93%
    01:00 +4°C° 0 mm 1 mps 623 mmHg 93%
    02:00 +4°C° 0 mm 1 mps 622 mmHg 93%
    03:00 +4°C° 0 mm 1 mps 622 mmHg 93%
    04:00 +3°C° 0 mm 1 mps 621 mmHg 92%
    05:00 +5°C° 0 mm 1 mps 622 mmHg 89%
    06:00 +7°C° 0 mm 1 mps 622 mmHg 85%
    07:00 +9°C° 0 mm 1 mps 623 mmHg 82%
    08:00 +11°C° 0 mm 0 mps 623 mmHg 68%
    09:00 +13°C° 0 mm 0 mps 624 mmHg 54%
    10:00 +16°C° 0 mm 0 mps 625 mmHg 40%
    11:00 +18°C° 0 mm 1 mps 624 mmHg 38%
    12:00 +19°C° 0 mm 1 mps 624 mmHg 35%
    13:00 +19°C° 0 mm 1 mps 624 mmHg 33%
    14:00 +18°C° 0 mm 1 mps 623 mmHg 35%
    15:00 +17°C° 0 mm 2 mps 623 mmHg 37%
    16:00 +17°C° 0 mm 2 mps 622 mmHg 39%
    17:00 +15°C° 0 mm 1 mps 621 mmHg 50%
    18:00 +13°C° 0 mm 1 mps 621 mmHg 61%
    19:00 +11°C° 0 mm 0 mps 620 mmHg 72%
    20:00 +10°C° 0 mm 1 mps 619 mmHg 74%
    21:00 +9°C° 0 mm 1 mps 619 mmHg 75%
    22:00 +6°C° 0 mm 2 mps 619 mmHg 77%
    23:00 +6°C° 0 mm 2 mps 618 mmHg 78%

    Day after tomorrow, 4 June, Thursday

    Time Temperature Precipitation Wind Pressure Humidity
    00:00 +6°C° 0 mm 2 mps 618 mmHg 78%
    01:00 +5°C° 0 mm 2 mps 617 mmHg 79%
    02:00 +5°C° 0 mm 2 mps 617 mmHg 81%
    03:00 +5°C° 0 mm 2 mps 616 mmHg 84%
    04:00 +5°C° 0 mm 2 mps 616 mmHg 86%
    05:00 +6°C° 0 mm 2 mps 617 mmHg 81%
    06:00 +9°C° 0 mm 1 mps 617 mmHg 75%
    07:00 +11°C° 0 mm 1 mps 618 mmHg 70%
    08:00 +12°C° 0 mm 1 mps 618 mmHg 65%
    09:00 +14°C° 0 mm 1 mps 619 mmHg 59%
    10:00 +16°C° 0 mm 1 mps 619 mmHg 54%
    11:00 +16°C° 0.2 mm 1 mps 619 mmHg 57%
    12:00 +16°C° 0.2 mm 1 mps 618 mmHg 61%
    13:00 +15°C° 0.2 mm 1 mps 618 mmHg 64%
    14:00 +15°C° 0.6 mm 1 mps 617 mmHg 69%
    15:00 +14°C° 0.6 mm 1 mps 617 mmHg 74%
    16:00 +13°C° 0.6 mm 1 mps 616 mmHg 79%
    17:00 +12°C° 0.4 mm 2 mps 616 mmHg 83%
    18:00 +10°C° 0.4 mm 2 mps 615 mmHg 86%
    19:00 +9°C° 0.4 mm 2 mps 615 mmHg 90%
    20:00 +9°C° 0.3 mm 1 mps 614 mmHg 92%
    21:00 +8°C° 0.3 mm 1 mps 614 mmHg 93%
    22:00 +7°C° 0.3 mm 1 mps 614 mmHg 95%
    23:00 +7°C° 0.8 mm 1 mps 614 mmHg 96%

    5 June, Friday

    Time Temperature Precipitation Wind Pressure Humidity
    00:00 +7°C° 0.8 mm 1 mps 614 mmHg 97%
    01:00 +7°C° 0.8 mm 1 mps 613 mmHg 98%
    02:00 +7°C° 3.4 mm 1 mps 613 mmHg 98%
    03:00 +6°C° 3.4 mm 1 mps 613 mmHg 98%
    04:00 +6°C° 3.4 mm 1 mps 613 mmHg 98%
    05:00 +6°C° 2.7 mm 1 mps 613 mmHg 98%
    06:00 +6°C° 2.7 mm 1 mps 613 mmHg 98%
    07:00 +4°C° 2.7 mm 0 mps 614 mmHg 97%
    08:00 +5°C° 1.7 mm 1 mps 614 mmHg 97%
    09:00 +6°C° 1.7 mm 1 mps 615 mmHg 97%
    10:00 +6°C° 1.7 mm 1 mps 615 mmHg 97%
    11:00 +5°C° 1.2 mm 1 mps 615 mmHg 97%
    12:00 +5°C° 1.2 mm 1 mps 616 mmHg 97%
    13:00 +5°C° 1.2 mm 1 mps 616 mmHg 97%
    14:00 +6°C° 0.3 mm 1 mps 616 mmHg 92%
    15:00 +7°C° 0.3 mm 1 mps 617 mmHg 88%
    16:00 +7°C° 0.3 mm 0 mps 618 mmHg 84%
    17:00 +6°C° 0.1 mm 0 mps 618 mmHg 86%
    18:00 +6°C° 0.1 mm 0 mps 618 mmHg 89%
    19:00 +6°C° 0.1 mm 0 mps 618 mmHg 91%
    20:00 +5°C° 0 mm 1 mps 619 mmHg 92%
    21:00 +4°C° 0 mm 1 mps 619 mmHg 93%
    22:00 +3°C° 0 mm 1 mps 619 mmHg 93%
    23:00 +3°C° 0 mm 1 mps 619 mmHg 93%

    6 June, Saturday

    Time Temperature Precipitation Wind Pressure Humidity
    00:00 +2°C° 0 mm 1 mps 619 mmHg 93%
    01:00 +1°C° 0 mm 2 mps 619 mmHg 93%
    02:00 +1°C° 0 mm 2 mps 619 mmHg 92%
    03:00 +1°C° 0 mm 2 mps 619 mmHg 92%
    04:00 +1°C° 0 mm 2 mps 619 mmHg 92%
    05:00 +3°C° 0 mm 2 mps 620 mmHg 87%
    06:00 +6°C° 0 mm 1 mps 621 mmHg 83%
    07:00 +8°C° 0 mm 1 mps 622 mmHg 78%
    08:00 +10°C° 0 mm 1 mps 623 mmHg 69%
    09:00 +13°C° 0 mm 1 mps 624 mmHg 59%
    10:00 +15°C° 0 mm 1 mps 624 mmHg 50%
    11:00 +15°C° 0.1 mm 1 mps 624 mmHg 52%
    12:00 +15°C° 0.1 mm 1 mps 624 mmHg 54%
    13:00 +14°C° 0.1 mm 2 mps 623 mmHg 56%
    14:00 +14°C° 0.1 mm 1 mps 623 mmHg 57%
    15:00 +15°C° 0.1 mm 1 mps 623 mmHg 58%
    16:00 +15°C° 0.1 mm 1 mps 623 mmHg 59%
    17:00 +14°C° 0.2 mm 1 mps 623 mmHg 67%
    18:00 +13°C° 0.2 mm 1 mps 622 mmHg 75%
    19:00 +11°C° 0.2 mm 1 mps 622 mmHg 84%
    20:00 +10°C° 0.1 mm 1 mps 622 mmHg 87%
    21:00 +9°C° 0.1 mm 1 mps 622 mmHg 90%
    22:00 +8°C° 0.1 mm 1 mps 622 mmHg 93%
    23:00 +7°C° 0 mm 1 mps 622 mmHg 93%

    7 June, Sunday

    Time Temperature Precipitation Wind Pressure Humidity
    00:00 +7°C° 0 mm 1 mps 621 mmHg 94%
    01:00 +6°C° 0 mm 1 mps 621 mmHg 94%
    02:00 +6°C° 0 mm 1 mps 621 mmHg 94%
    03:00 +6°C° 0 mm 1 mps 620 mmHg 95%
    04:00 +5°C° 0 mm 1 mps 620 mmHg 95%
    05:00 +7°C° 0.1 mm 1 mps 621 mmHg 92%
    06:00 +7°C° 0.1 mm 0 mps 621 mmHg 90%
    07:00 +8°C° 0.1 mm 0 mps 622 mmHg 87%
    08:00 +9°C° 0.2 mm 0 mps 622 mmHg 84%
    09:00 +10°C° 0.2 mm 0 mps 622 mmHg 82%
    10:00 +11°C° 0.2 mm 0 mps 623 mmHg 79%
    11:00 +13°C° 0.5 mm 1 mps 623 mmHg 78%
    12:00 +14°C° 0.5 mm 1 mps 623 mmHg 76%
    13:00 +15°C° 0.5 mm 1 mps 623 mmHg 75%
    14:00 +14°C° 1.3 mm 1 mps 623 mmHg 77%
    15:00 +14°C° 1.3 mm 1 mps 623 mmHg 79%
    16:00 +14°C° 1.3 mm 1 mps 622 mmHg 82%
    17:00 +12°C° 2.5 mm 2 mps 622 mmHg 87%
    18:00 +9°C° 2.5 mm 2 mps 622 mmHg 92%
    19:00 +8°C° 2.5 mm 2 mps 622 mmHg 97%
    20:00 +7°C° 2 mm 2 mps 622 mmHg 98%
    21:00 +7°C° 2 mm 1 mps 622 mmHg 98%
    22:00 +7°C° 2 mm 1 mps 623 mmHg 99%
    23:00 +6°C° 0.6 mm 1 mps 623 mmHg 99%
    Show more